Weather History for KMKS - March, 2013

Change the Weather History Date:

Saturday, March 16, 2013

  Actual Average (KCHS) Record (KCHS)
Temperature  
Mean Temperature 68 °F 58 °F  
Max Temperature 82 °F 70 °F 87 °F (1945)
Min Temperature 55 °F 47 °F 28 °F (1988)
Degree Days  
Heating Degree Days 0 8  
Month to date heating degree days 148  
Since 1 July heating degree days 1784  
Cooling Degree Days 4 1  
Month to date cooling degree days 14  
Year to date cooling degree days 21  
Growing Degree Days 18 (Base 50)    
Moisture  
Dew Point 42 °F    
Average Humidity 43    
Maximum Humidity 67    
Minimum Humidity 23    
Precipitation  
Precipitation 0.00 in 0.12 in 0.89 in (1972)
Month to date precipitation 1.89  
Year to date precipitation 8.56  
Sea Level Pressure  
Sea Level Pressure 29.95 in    
Wind  
Wind Speed 9 mph (WSW)    
Max Wind Speed 17 mph    
Max Gust Speed 29 mph    
Visibility 9 miles    
Events      
T = Trace of Precipitation, MM = Missing Value Source: NWS Daily Summary

Daily Weather History Graph

Daily Weather History Graph

Search for Another Location

Airport or City:

Trip Planner

Search our weather history database for the weather conditions in past years. The results will help you decide how hot, cold, wet, or windy it might be!

Date:

Astronomy

Mar. 16, 2013 Rise Set
Actual Time 7:28 AM EDT 7:28 PM EDT
Civil Twilight 7:04 AM EDT 7:53 PM EDT
Nautical Twilight 6:35 AM EDT 8:22 PM EDT
Astronomical Twilight 6:06 AM EDT 8:51 PM EDT
Moon 10:12 AM EDT (3/16) No Moon Set
Length of Visible Light 12h 49m
Length of Day
12h 00m
Waxing Crescent, 23% of the Moon is Illuminated
Mar 16
Waxing Crescent
Mar 19
First Quarter
Mar 27
Full
Apr 3
Last Quarter
Apr 10
New

Hourly Weather History & Observations

Time (EDT) Temp. Dew Point Humidity Pressure Visibility Wind Dir Wind Speed Gust Speed Precip Events Conditions
12:15 AM 55.4 °F 44.6 °F 67% 30.04 in 10.0 mi SSW 6.9 mph - N/A   Clear
12:35 AM 55.4 °F 44.6 °F 67% 30.03 in 10.0 mi SW 8.1 mph - N/A   Clear
12:55 AM 55.4 °F 44.6 °F 67% 30.02 in 7.0 mi SW 8.1 mph - N/A   Clear
1:15 AM 55.4 °F 44.6 °F 67% 30.02 in 10.0 mi SW 10.4 mph - N/A   Clear
1:35 AM 55.4 °F 44.6 °F 67% 30.02 in 7.0 mi SW 8.1 mph - N/A   Clear
1:55 AM 55.4 °F 44.6 °F 67% 30.02 in 7.0 mi SW 8.1 mph - N/A   Clear
2:15 AM 57.2 °F 44.6 °F 63% 30.01 in 7.0 mi SW 8.1 mph - N/A   Clear
2:35 AM 55.4 °F 44.6 °F 67% 30.00 in 7.0 mi SW 8.1 mph - N/A   Clear
2:55 AM 55.4 °F 44.6 °F 67% 30.00 in 10.0 mi SW 8.1 mph - N/A   Clear
3:15 AM 57.2 °F 42.8 °F 59% 30.00 in 10.0 mi SW 9.2 mph - N/A   Clear
3:35 AM 59.0 °F 42.8 °F 55% 29.99 in 10.0 mi SW 8.1 mph - N/A   Clear
3:55 AM 59.0 °F 41.0 °F 51% 29.99 in 10.0 mi WSW 10.4 mph 16.1 mph N/A   Clear
4:15 AM 59.0 °F 41.0 °F 51% 29.99 in 10.0 mi WSW 11.5 mph - N/A   Clear
4:35 AM 57.2 °F 41.0 °F 55% 29.98 in 10.0 mi SW 9.2 mph - N/A   Clear
4:55 AM 57.2 °F 41.0 °F 55% 29.98 in 10.0 mi WSW 9.2 mph - N/A   Clear
5:15 AM 57.2 °F 41.0 °F 55% 29.98 in 10.0 mi WSW 9.2 mph - N/A   Clear
5:35 AM 57.2 °F 41.0 °F 55% 29.98 in 10.0 mi WSW 9.2 mph - N/A   Clear
5:55 AM 57.2 °F 41.0 °F 55% 29.99 in 10.0 mi WSW 9.2 mph - N/A   Clear
6:15 AM 57.2 °F 41.0 °F 55% 30.00 in 7.0 mi WSW 9.2 mph - N/A   Clear
6:35 AM 55.4 °F 41.0 °F 58% 30.00 in 10.0 mi WSW 8.1 mph - N/A   Clear
6:55 AM 55.4 °F 41.0 °F 58% 30.00 in 10.0 mi SW 6.9 mph - N/A   Clear
7:15 AM 55.4 °F 41.0 °F 58% 30.00 in 7.0 mi WSW 5.8 mph - N/A   Clear
7:35 AM 55.4 °F 41.0 °F 58% 30.00 in 10.0 mi WSW 8.1 mph - N/A   Clear
7:55 AM 55.4 °F 41.0 °F 58% 30.00 in 7.0 mi WSW 6.9 mph - N/A   Clear
8:15 AM 55.4 °F 41.0 °F 58% 30.00 in 7.0 mi WSW 6.9 mph - N/A   Clear
8:35 AM 57.2 °F 42.8 °F 59% 30.00 in 7.0 mi WSW 6.9 mph - N/A   Clear
8:55 AM 57.2 °F 42.8 °F 59% 30.00 in 10.0 mi WSW 6.9 mph - N/A   Clear
9:15 AM 59.0 °F 42.8 °F 55% 30.01 in 7.0 mi WSW 9.2 mph 17.3 mph N/A   Clear
9:35 AM 59.0 °F 42.8 °F 55% 30.00 in 10.0 mi WSW 11.5 mph 17.3 mph N/A   Clear
9:55 AM 60.8 °F 42.8 °F 52% 30.01 in 7.0 mi WSW 10.4 mph 16.1 mph N/A   Clear
10:15 AM 62.6 °F 42.8 °F 48% 30.00 in 7.0 mi West 8.1 mph 17.3 mph N/A   Clear
10:35 AM 64.4 °F 42.8 °F 45% 30.00 in 10.0 mi WSW 11.5 mph 18.4 mph N/A   Clear
10:55 AM 66.2 °F 42.8 °F 43% 30.00 in 10.0 mi WSW 9.2 mph - N/A   Clear
11:15 AM 68.0 °F 42.8 °F 40% 29.99 in 7.0 mi WSW 11.5 mph - N/A   Clear
11:35 AM 69.8 °F 42.8 °F 38% 29.99 in 10.0 mi WSW 10.4 mph 18.4 mph N/A   Clear
11:55 AM 71.6 °F 42.8 °F 35% 29.98 in 7.0 mi WSW 9.2 mph 20.7 mph N/A   Clear
12:15 PM 73.4 °F 42.8 °F 33% 29.97 in 7.0 mi West 8.1 mph - N/A   Clear
12:35 PM 73.4 °F 42.8 °F 33% 29.96 in 7.0 mi West 9.2 mph 16.1 mph N/A   Clear
12:55 PM 75.2 °F 44.6 °F 34% 29.96 in 10.0 mi WSW 11.5 mph 20.7 mph N/A   Clear
1:15 PM 77.0 °F 42.8 °F 29% 29.95 in 10.0 mi West 11.5 mph 20.7 mph N/A   Clear
1:35 PM 77.0 °F 42.8 °F 29% 29.93 in 7.0 mi West 6.9 mph 21.9 mph N/A   Clear
1:55 PM 78.8 °F 42.8 °F 28% 29.93 in 7.0 mi WSW 13.8 mph 27.6 mph N/A   Clear
2:15 PM 78.8 °F 42.8 °F 28% 29.92 in 10.0 mi WSW 10.4 mph 19.6 mph N/A   Clear
2:35 PM 78.8 °F 42.8 °F 28% 29.91 in 10.0 mi SW 16.1 mph 21.9 mph N/A   Clear
2:55 PM 78.8 °F 41.0 °F 26% 29.90 in 10.0 mi West 10.4 mph 18.4 mph N/A   Clear
3:15 PM 80.6 °F 41.0 °F 24% 29.88 in 10.0 mi WSW 10.4 mph 23.0 mph N/A   Clear
3:35 PM 80.6 °F 41.0 °F 24% 29.87 in 7.0 mi WSW 13.8 mph 18.4 mph N/A   Clear
3:55 PM 80.6 °F 41.0 °F 24% 29.87 in 10.0 mi WSW 11.5 mph 28.8 mph N/A   Clear
4:15 PM 80.6 °F 39.2 °F 23% 29.86 in 10.0 mi WSW 10.4 mph 24.2 mph N/A   Clear
4:35 PM 82.4 °F 41.0 °F 23% 29.85 in 7.0 mi SW 17.3 mph 25.3 mph N/A   Clear
4:55 PM 82.4 °F 41.0 °F 23% 29.86 in 10.0 mi WSW 11.5 mph 17.3 mph N/A   Clear
5:15 PM 80.6 °F 41.0 °F 24% 29.86 in 10.0 mi WSW 9.2 mph 21.9 mph N/A   Clear
5:35 PM 80.6 °F 41.0 °F 24% 29.85 in 10.0 mi WSW 17.3 mph 23.0 mph N/A   Clear
5:55 PM 80.6 °F 39.2 °F 23% 29.85 in 7.0 mi SW 17.3 mph 24.2 mph N/A   Clear
6:15 PM 78.8 °F 41.0 °F 26% 29.85 in 10.0 mi WSW 8.1 mph 18.4 mph N/A   Clear
6:35 PM 78.8 °F 41.0 °F 26% 29.86 in 7.0 mi SW 13.8 mph 19.6 mph N/A   Clear
6:55 PM 78.8 °F 41.0 °F 26% 29.86 in 10.0 mi WSW 8.1 mph - N/A   Clear
7:15 PM 77.0 °F 41.0 °F 28% 29.87 in 10.0 mi SW 9.2 mph - N/A   Clear
7:35 PM 75.2 °F 39.2 °F 27% 29.87 in 7.0 mi WSW 8.1 mph 18.4 mph N/A   Clear
7:55 PM 73.4 °F 39.2 °F 29% 29.87 in 10.0 mi SW 8.1 mph 16.1 mph N/A   Clear
8:15 PM 73.4 °F 39.2 °F 29% 29.88 in 10.0 mi SW 9.2 mph - N/A   Clear
8:35 PM 71.6 °F 39.2 °F 31% 29.89 in 10.0 mi SW 8.1 mph - N/A   Clear
8:55 PM 71.6 °F 41.0 °F 33% 29.90 in 10.0 mi SW 8.1 mph - N/A   Clear
9:15 PM 71.6 °F 41.0 °F 33% 29.90 in 10.0 mi SW 9.2 mph - N/A   Clear
9:35 PM 69.8 °F 41.0 °F 35% 29.91 in 10.0 mi SW 8.1 mph - N/A   Clear
9:55 PM 69.8 °F 41.0 °F 35% 29.93 in 10.0 mi SW 11.5 mph - N/A   Clear
10:15 PM 69.8 °F 41.0 °F 35% 29.93 in 10.0 mi SW 9.2 mph 16.1 mph N/A   Clear
10:35 PM 69.8 °F 41.0 °F 35% 29.93 in 10.0 mi SW 10.4 mph - N/A   Clear
10:55 PM 68.0 °F 39.2 °F 35% 29.93 in 7.0 mi SW 10.4 mph - N/A   Clear
11:15 PM 68.0 °F 39.2 °F 35% 29.94 in 10.0 mi WSW 9.2 mph 17.3 mph N/A   Clear
11:35 PM 68.0 °F 41.0 °F 37% 29.94 in 10.0 mi SW 11.5 mph 18.4 mph N/A   Clear
11:55 PM 68.0 °F 41.0 °F 37% 29.94 in 10.0 mi WSW 10.4 mph - N/A   Clear